TimeEST,TemperatureF,Dew PointF,Humidity,Sea Level PressureIn,VisibilityMPH,Wind Direction,Wind SpeedMPH,Gust SpeedMPH,PrecipitationIn,Events,Conditions,WindDirDegrees,DateUTC
12:56 AM,23.0,18.0,81,30.41,10.0,Calm,Calm,-,N/A,,Overcast,0,2013-11-29 05:56:00
1:56 AM,23.0,17.1,78,30.42,10.0,Calm,Calm,-,N/A,,Overcast,0,2013-11-29 06:56:00
2:56 AM,21.9,17.1,82,30.44,10.0,WSW,3.5,-,N/A,,Overcast,240,2013-11-29 07:56:00
3:56 AM,21.9,17.1,82,30.45,10.0,West,5.8,-,N/A,,Overcast,260,2013-11-29 08:56:00
4:49 AM,23.0,17.6,80,30.39,10.0,West,8.1,-,N/A,,Overcast,260,2013-11-29 09:49:00
4:56 AM,23.0,17.1,78,30.47,10.0,West,6.9,-,N/A,,Overcast,260,2013-11-29 09:56:00
5:56 AM,23.0,18.0,81,30.49,10.0,West,5.8,-,N/A,,Overcast,270,2013-11-29 10:56:00
6:45 AM,21.2,17.6,86,30.44,10.0,West,3.5,-,N/A,,Mostly Cloudy,260,2013-11-29 11:45:00
6:56 AM,21.9,17.1,82,30.53,10.0,West,4.6,-,N/A,,Overcast,260,2013-11-29 11:56:00
7:10 AM,21.2,17.6,86,30.45,10.0,WSW,3.5,-,N/A,,Mostly Cloudy,250,2013-11-29 12:10:00
7:56 AM,19.9,17.1,89,30.56,8.0,West,3.5,-,N/A,,Scattered Clouds,260,2013-11-29 12:56:00
8:56 AM,21.9,18.0,85,30.58,8.0,Calm,Calm,-,N/A,,Mostly Cloudy,0,2013-11-29 13:56:00
9:56 AM,24.1,19.0,81,30.60,10.0,Calm,Calm,-,N/A,,Scattered Clouds,0,2013-11-29 14:56:00
10:56 AM,27.0,18.0,69,30.61,10.0,NNW,8.1,-,N/A,,Partly Cloudy,340,2013-11-29 15:56:00
11:56 AM,28.0,18.0,66,30.61,10.0,NW,5.8,-,N/A,,Mostly Cloudy,310,2013-11-29 16:56:00
12:56 PM,28.0,17.1,63,30.61,10.0,West,4.6,-,N/A,,Overcast,270,2013-11-29 17:56:00
1:35 PM,28.4,17.6,64,30.53,10.0,WNW,5.8,-,N/A,,Overcast,290,2013-11-29 18:35:00
1:51 PM,28.4,17.6,64,30.53,10.0,West,4.6,-,N/A,,Overcast,280,2013-11-29 18:51:00
1:56 PM,28.0,18.0,66,30.61,10.0,West,5.8,-,N/A,,Overcast,280,2013-11-29 18:56:00
2:56 PM,28.0,17.1,63,30.62,10.0,West,5.8,-,N/A,,Mostly Cloudy,260,2013-11-29 19:56:00
3:56 PM,28.0,17.1,63,30.63,10.0,West,3.5,-,N/A,,Mostly Cloudy,260,2013-11-29 20:56:00
4:56 PM,27.0,18.0,69,30.64,10.0,Calm,Calm,-,N/A,,Mostly Cloudy,0,2013-11-29 21:56:00
5:56 PM,27.0,18.0,69,30.66,10.0,Calm,Calm,-,N/A,,Overcast,0,2013-11-29 22:56:00
6:56 PM,26.1,19.9,78,30.68,10.0,Calm,Calm,-,N/A,,Overcast,0,2013-11-29 23:56:00
7:56 PM,25.0,19.9,81,30.68,10.0,ESE,3.5,-,N/A,,Overcast,120,2013-11-30 00:56:00
8:56 PM,24.1,19.0,81,30.67,10.0,East,5.8,-,N/A,,Scattered Clouds,100,2013-11-30 01:56:00
9:56 PM,21.9,17.1,82,30.68,10.0,East,6.9,-,N/A,,Clear,100,2013-11-30 02:56:00
10:56 PM,19.9,17.1,89,30.69,8.0,East,5.8,-,N/A,,Clear,80,2013-11-30 03:56:00
11:56 PM,19.9,16.0,85,30.68,10.0,East,5.8,-,N/A,,Clear,90,2013-11-30 04:56:00